Погода в Муромцеве

Россия / Владимирская область     55°55′51″N   40°54′43″E
темп.,
°C
ветер,
м/с
пор.,
м/с
влажн.,
%
обл.,
%
осадки,
мм/ч
давл.,
гПа
погр.,
м
5 августа, чт
чт500:00+13зсз226920 0.0 101722
03:00+13в016880 0.0 101710
06:00+14юв226733 0.0 101859
09:00+21юв23465 0.0 1017723
12:00+24ю2238100 0.0 10172256
15:00+23в3444100 0.0 1016470
18:00+20в3655100 0.0 1015149
21:00+17ссз3471100 0.1 1016115
6 августа, пт
пт600:00+16в497144 0.3 1015203
03:00+16вюв41270100 0.4 1014319
06:00+15юв3787100 0.4 1014189
09:00+20ююв486591 0.6 1013480
12:00+17юв2688100 0.4 1014252
15:00+23ююв4659100 0.5 1013804
18:00+17вюв2396100 2.9 101385
21:00+16в499474 2.9 1013234
7 августа, сб
сб700:00+16в4129151 0.1 1012355
03:00+15в389679 1.6 1011215
06:00+16вюв279686 1.6 1011196
09:00+19ююв3685100 2.7 1012337
12:00+22юв367331 1.9 1012500
15:00+22ююз495485 1.9 1012291
18:00+23всв2261100 0.1 101130
21:00+20вюв31165100 0.1 1011202
8 августа, вс
вс800:00+21ююв4135662 0.0 1011352
03:00+18ююв3127895 0.1 1012210
06:00+18ю397196 0.0 1012212
09:00+24ююз3452100 0.0 1012442
12:00+27з235181 0.0 10131114
15:00+25з236499 0.0 1014644
18:00+25юз2467100 0.0 1015481
21:00+18сз2291100 1.3 101642
9 августа, пн
пн900:00+16зсз128623 0.0 101716
03:00+15сз118915 0.0 101811
06:00+16зсз12911 0.0 101868
09:00+22зсз12640 0.0 1019484
12:00+26зсз234421 0.0 10181466
15:00+27зсз2338100 0.0 10181900
18:00+25ссз2254100 0.0 101759
21:00+20ссв2268100 0.0 101812